Regional Weather Roundup
Issued by NWS

Home | Current Version | Previous Version | Text Only | Print | Product List | Glossary Off
Versions: 1 2 3 4 5 6 7 8 9 10 11 12 13 14 15 16 17 18 19 20 21 22 23 24 25 26 27 28 29 30 31 32 33 34 35 36 37 38 39 40 41 42 43 44 45 46 47 48 49 50

000
ASUS43 KOAX 020802
RWRNE

WEATHER ROUNDUP FOR NEBRASKA
NATIONAL WEATHER SERVICE OMAHA NE
300 AM CDT THU JUL 02 2015

NOTES: SATELLITE DATA IS BEING USED TO AUGMENT CLOUD COVER ABOVE
       12000 FEET.
       "FAIR" INDICATES FEW OR NO CLOUDS BELOW 12,000 FEET WITH NO
       SIGNIFICANT WEATHER AND/OR OBSTRUCTIONS TO VISIBILITY.

  * THESE STATIONS DO NOT REPORT WEATHER SUCH AS RAIN...SNOW OR FOG.

NEZ001>004-019>022-054>056-020900-
NEBRASKA PANHANDLE

CITY           SKY/WX    TMP DP  RH WIND       PRES   REMARKS
SCOTTSBLUFF    LGT RAIN  61  56  83 NE24G39   30.16R
ALLIANCE       TSTM      58  56  93 NE22G30   30.16R FOG
CHADRON        LGT RAIN  62  59  90 S9        30.11F FOG
SIDNEY         PTCLDY    62  59  90 S8        30.08F
$$

NEZ057>060-069>072-079>082-020900-
SOUTHWEST NEBRASKA

CITY           SKY/WX    TMP DP  RH WIND       PRES   REMARKS
NORTH PLATTE   CLOUDY    68  63  84 VRB5      29.98R
IMPERIAL       MOCLDY    69  59  70 CALM      29.98S
MCCOOK         CLOUDY    77  60  55 W10       29.94R
$$

NEZ005>010-023>029-035>040-094-020900-
NORTH CENTRAL NEBRASKA

CITY           SKY/WX    TMP DP  RH WIND       PRES   REMARKS
VALENTINE      CLOUDY    65  64  97 W6        30.01R
BROKEN BOW     CLOUDY    69  67  93 CALM      29.97R FOG
$$

NEZ041-046>049-061>064-073>077-083>087-020900-
SOUTH CENTRAL NEBRASKA

CITY           SKY/WX    TMP DP  RH WIND       PRES   REMARKS
GRAND ISLAND   MOCLDY    69  67  93 E8        29.93S
HASTINGS       MOCLDY    70  68  93 E8        29.92R
KEARNEY *      CLOUDY    70  66  88 E5        29.93R
$$

NEZ011>018-030>034-042>045-020900-
NORTHEAST NEBRASKA

CITY           SKY/WX    TMP DP  RH WIND       PRES   REMARKS
NORFOLK        CLOUDY    66  64  93 E6        29.95R
COLUMBUS *     MOCLDY   N/A N/A N/A E5        29.92S
TEKAMAH        MOCLDY    65  59  81 E8        29.94S
$$

NEZ050>053-065>068-078-088>093-020900-
SOUTHEAST NEBRASKA

CITY           SKY/WX    TMP DP  RH WIND       PRES   REMARKS
LINCOLN        CLOUDY    69  65  86 E8        29.92F
OMAHA EPPLEY   PTCLDY    67  60  78 E8        29.92F
FALLS CITY     CLOUDY    70  67  90 E7        29.88F
$$

NEZ044-045-051>053-067-020900-
OMAHA AREA

CITY           SKY/WX    TMP DP  RH WIND       PRES   REMARKS
OMAHA EPPLEY   PTCLDY    67  60  78 E8        29.92F
OFFUTT AFB     PTCLDY    67  60  76 E7        29.91F
$$


USA.gov is the U.S. government's official web portal to all federal, state and local government web resources and services.